TAT21SB LFKB-LIRQ

Flight info

Callsign TAT21SB
Flight time 0h 30m
Altitude 16000
Route MOULE DCT ELB DCT PIS
Aircraft F28/M-SDFRWY/H

Departure

Time 2026-04-26 13:26
Airport Bastia-Poretta International airport (LFKB)

Arrival

Time 2026-04-26 13:56
Airport Florence Airport, Peretola (LIRQ)
Time Latitude Longitude Altitude Speed Heading
2026-04-26 13:15 42.55055 9.48048 34 ft 0 kts 253°
2026-04-26 13:21 42.55052 9.48041 34 ft 1 kts 220°
2026-04-26 13:22 42.55027 9.48059 34 ft 8 kts 112°
2026-04-26 13:22 42.54991 9.48152 33 ft 12 kts 123°
2026-04-26 13:22 42.54929 9.48239 32 ft 13 kts 158°
2026-04-26 13:22 42.54841 9.48275 32 ft 14 kts 162°
2026-04-26 13:23 42.54741 9.48316 30 ft 16 kts 163°
2026-04-26 13:23 42.54633 9.48359 30 ft 16 kts 163°
2026-04-26 13:23 42.54525 9.48405 29 ft 17 kts 163°
2026-04-26 13:23 42.54409 9.48413 30 ft 16 kts 174°
2026-04-26 13:24 42.54307 9.48457 30 ft 16 kts 161°
2026-04-26 13:24 42.54203 9.48501 32 ft 14 kts 163°
2026-04-26 13:24 42.54140 9.48571 35 ft 11 kts 118°
2026-04-26 13:24 42.54127 9.48672 35 ft 11 kts 79°
2026-04-26 13:25 42.54168 9.48767 34 ft 13 kts 46°
2026-04-26 13:25 42.54266 9.48795 33 ft 32 kts 341°
2026-04-26 13:25 42.54719 9.48603 29 ft 101 kts 343°
2026-04-26 13:25 42.55553 9.48265 103 ft 140 kts 345°
2026-04-26 13:26 42.56512 9.47849 649 ft 151 kts 344°
2026-04-26 13:26 42.57576 9.47640 1292 ft 163 kts 11°
2026-04-26 13:26 42.58587 9.48361 2056 ft 171 kts 48°
2026-04-26 13:26 42.59093 9.49839 2857 ft 182 kts 84°
2026-04-26 13:27 42.58864 9.51710 3331 ft 223 kts 115°
2026-04-26 13:27 42.58115 9.53657 4056 ft 239 kts 107°
2026-04-26 13:27 42.58251 9.55885 4793 ft 249 kts 68°
2026-04-26 13:27 42.58876 9.58120 5056 ft 267 kts 73°
2026-04-26 13:28 42.59316 9.60629 5511 ft 276 kts 78°
2026-04-26 13:28 42.59744 9.63120 6468 ft 267 kts 75°
2026-04-26 13:28 42.60279 9.65582 6852 ft 282 kts 74°
2026-04-26 13:28 42.60854 9.68226 7241 ft 300 kts 74°
2026-04-26 13:29 42.61384 9.71026 7778 ft 312 kts 78°
2026-04-26 13:29 42.61678 9.73004 8157 ft 320 kts 80°
2026-04-26 13:29 42.62126 9.77047 8958 ft 334 kts 82°
2026-04-26 13:29 42.62500 9.80193 9588 ft 342 kts 82°
2026-04-26 13:30 42.62862 9.83426 10239 ft 349 kts 82°
2026-04-26 13:30 42.63365 9.86683 10857 ft 356 kts 76°
2026-04-26 13:30 42.63948 9.89973 11492 ft 361 kts 76°
2026-04-26 13:30 42.64560 9.93301 12156 ft 365 kts 76°
2026-04-26 13:31 42.65181 9.96663 12828 ft 369 kts 76°
2026-04-26 13:31 42.65806 10.00053 13519 ft 371 kts 76°
2026-04-26 13:31 42.66435 10.03462 14186 ft 373 kts 76°
2026-04-26 13:31 42.67066 10.06893 14804 ft 375 kts 75°
2026-04-26 13:32 42.67698 10.10332 15390 ft 377 kts 75°
2026-04-26 13:32 42.68340 10.13812 15876 ft 382 kts 75°
2026-04-26 13:32 42.68989 10.17348 16224 ft 391 kts 75°
2026-04-26 13:32 42.69651 10.20956 16190 ft 394 kts 75°
2026-04-26 13:33 42.70317 10.24576 16177 ft 395 kts 75°
2026-04-26 13:33 42.70983 10.28206 16172 ft 395 kts 75°
2026-04-26 13:33 42.71649 10.31837 16170 ft 396 kts 75°
2026-04-26 13:33 42.72316 10.35464 16162 ft 396 kts 75°
2026-04-26 13:34 42.73013 10.39086 16163 ft 395 kts 70°
2026-04-26 13:34 42.74310 10.42348 16170 ft 393 kts 50°
2026-04-26 13:34 42.76333 10.44800 16165 ft 390 kts 30°
2026-04-26 13:34 42.77955 10.45837 16166 ft 389 kts 17°
2026-04-26 13:35 42.81519 10.46369 16175 ft 387 kts 356°
2026-04-26 13:35 42.84196 10.46028 16170 ft 387 kts 353°
2026-04-26 13:35 42.86858 10.45480 16162 ft 387 kts 349°
2026-04-26 13:35 42.89498 10.44790 16163 ft 387 kts 348°
2026-04-26 13:36 42.92134 10.44046 16160 ft 387 kts 348°
2026-04-26 13:36 42.94769 10.43278 16155 ft 387 kts 347°
2026-04-26 13:36 42.97400 10.42499 16154 ft 387 kts 347°
2026-04-26 13:36 43.00032 10.41715 16158 ft 387 kts 347°
2026-04-26 13:37 43.02665 10.40962 16157 ft 387 kts 348°
2026-04-26 13:37 43.05323 10.40367 16157 ft 387 kts 352°
2026-04-26 13:37 43.07996 10.39893 16154 ft 387 kts 353°
2026-04-26 13:37 43.10673 10.39470 16155 ft 387 kts 353°
2026-04-26 13:38 43.13359 10.39190 16154 ft 387 kts 359°
2026-04-26 13:38 43.16046 10.39159 16086 ft 386 kts 359°
2026-04-26 13:38 43.18740 10.39146 15764 ft 389 kts 360°
2026-04-26 13:38 43.21450 10.39148 15454 ft 391 kts 360°
2026-04-26 13:39 43.24181 10.39150 15150 ft 393 kts 360°
2026-04-26 13:39 43.26885 10.39153 14856 ft 394 kts
2026-04-26 13:39 43.29633 10.39153 14564 ft 396 kts
2026-04-26 13:39 43.32392 10.39153 14260 ft 397 kts
2026-04-26 13:40 43.35142 10.39155 13812 ft 391 kts
2026-04-26 13:40 43.37807 10.39154 13268 ft 376 kts
2026-04-26 13:40 43.40380 10.39154 12728 ft 364 kts
2026-04-26 13:40 43.42884 10.39156 12208 ft 355 kts
2026-04-26 13:41 43.45324 10.39156 11704 ft 347 kts
2026-04-26 13:41 43.47719 10.39156 11216 ft 341 kts
2026-04-26 13:41 43.50098 10.39156 10738 ft 342 kts
2026-04-26 13:41 43.52432 10.39156 10276 ft 325 kts
2026-04-26 13:42 43.54605 10.39156 9921 ft 301 kts
2026-04-26 13:42 43.56670 10.39156 9510 ft 297 kts
2026-04-26 13:42 43.58742 10.39157 9121 ft 298 kts
2026-04-26 13:42 43.60818 10.39158 8749 ft 299 kts
2026-04-26 13:43 43.62879 10.39434 8363 ft 299 kts 17°
2026-04-26 13:43 43.64675 10.40857 7985 ft 300 kts 43°
2026-04-26 13:43 43.65846 10.43224 7626 ft 302 kts 69°
2026-04-26 13:43 43.66261 10.46051 7298 ft 302 kts 86°
2026-04-26 13:44 43.66246 10.48947 6989 ft 301 kts 96°
2026-04-26 13:44 43.65878 10.51791 6690 ft 298 kts 102°
2026-04-26 13:44 43.65500 10.54494 6365 ft 275 kts 101°
2026-04-26 13:44 43.65146 10.57003 5996 ft 258 kts 102°
2026-04-26 13:45 43.64811 10.59376 5611 ft 247 kts 102°
2026-04-26 13:45 43.64484 10.61659 5204 ft 239 kts 102°
2026-04-26 13:45 43.64164 10.63880 4771 ft 233 kts 102°
2026-04-26 13:45 43.63847 10.66040 4461 ft 226 kts 102°
2026-04-26 13:46 43.63541 10.68122 4212 ft 216 kts 103°
2026-04-26 13:46 43.63242 10.70082 3979 ft 208 kts 104°
2026-04-26 13:46 43.62938 10.71984 3847 ft 195 kts 103°
2026-04-26 13:46 43.62668 10.73760 3829 ft 182 kts 103°
2026-04-26 13:47 43.62427 10.75406 3883 ft 173 kts 103°
2026-04-26 13:47 43.62197 10.77058 3898 ft 177 kts 102°
2026-04-26 13:47 43.61945 10.78740 3934 ft 181 kts 104°
2026-04-26 13:47 43.61667 10.80442 3961 ft 183 kts 103°
2026-04-26 13:48 43.61438 10.82176 3950 ft 185 kts 101°
2026-04-26 13:48 43.61227 10.83933 4002 ft 186 kts 100°
2026-04-26 13:48 43.61022 10.85689 3969 ft 184 kts 100°
2026-04-26 13:48 43.60851 10.87430 3963 ft 183 kts 90°
2026-04-26 13:49 43.61236 10.89051 3992 ft 177 kts 58°
2026-04-26 13:49 43.61897 10.90469 4029 ft 174 kts 53°
2026-04-26 13:49 43.62598 10.91831 4020 ft 174 kts 51°
2026-04-26 13:49 43.63343 10.93137 3988 ft 172 kts 48°
2026-04-26 13:50 43.64100 10.94407 4039 ft 172 kts 47°
2026-04-26 13:50 43.64881 10.95648 4012 ft 168 kts 46°
2026-04-26 13:50 43.65621 10.96802 3977 ft 154 kts 46°
2026-04-26 13:50 43.66314 10.97871 3996 ft 144 kts 45°
2026-04-26 13:51 43.66980 10.98889 4011 ft 142 kts 45°
2026-04-26 13:51 43.67656 10.99902 3925 ft 147 kts 45°
2026-04-26 13:51 43.68361 11.00979 3729 ft 154 kts 46°
2026-04-26 13:51 43.69067 11.02064 3545 ft 147 kts 45°
2026-04-26 13:52 43.69739 11.03093 3307 ft 145 kts 46°
2026-04-26 13:52 43.70406 11.04138 3107 ft 145 kts 45°
2026-04-26 13:52 43.71091 11.05211 2949 ft 152 kts 45°
2026-04-26 13:52 43.71550 11.05908 2839 ft 144 kts 45°
2026-04-26 13:53 43.72239 11.06907 2623 ft 144 kts 42°
2026-04-26 13:53 43.72964 11.07955 2401 ft 152 kts 45°
2026-04-26 13:53 43.73877 11.09392 2167 ft 151 kts 46°
2026-04-26 13:53 43.74535 11.10502 1888 ft 146 kts 49°
2026-04-26 13:54 43.74966 11.11242 1703 ft 150 kts 47°
2026-04-26 13:54 43.75647 11.12318 1678 ft 145 kts 45°
2026-04-26 13:54 43.76326 11.13370 1514 ft 145 kts 46°
2026-04-26 13:55 43.77716 11.15406 1085 ft 148 kts 45°
2026-04-26 13:55 43.78176 11.16112 982 ft 148 kts 48°
2026-04-26 13:55 43.79681 11.18472 479 ft 145 kts 45°
2026-04-26 13:56 43.80335 11.19474 222 ft 135 kts 46°
2026-04-26 13:56 43.80911 11.20348 125 ft 104 kts 48°
2026-04-26 13:56 43.81238 11.20866 129 ft 39 kts 50°
2026-04-26 13:56 43.81258 11.21070 134 ft 18 kts 95°
2026-04-26 13:57 43.81263 11.21217 140 ft 13 kts 64°
2026-04-26 13:57 43.81312 11.21306 142 ft 10 kts 49°
2026-04-26 13:57 43.81361 11.21371 142 ft 10 kts 33°
2026-04-26 13:57 43.81449 11.21356 136 ft 20 kts 334°
2026-04-26 13:58 43.81450 11.21213 127 ft 21 kts 234°
2026-04-26 13:58 43.81358 11.21052 129 ft 22 kts 231°
2026-04-26 13:58 43.81253 11.20889 130 ft 23 kts 227°
2026-04-26 13:58 43.81140 11.20714 127 ft 25 kts 229°
2026-04-26 13:59 43.81024 11.20524 122 ft 27 kts 231°
2026-04-26 13:59 43.80904 11.20337 127 ft 25 kts 225°
2026-04-26 13:59 43.80784 11.20161 130 ft 24 kts 228°
2026-04-26 14:00 43.80485 11.19969 129 ft 15 kts 194°
2026-04-26 14:00 43.80412 11.19974 125 ft 11 kts 157°
2026-04-26 14:00 43.80364 11.20022 126 ft 14 kts 136°
2026-04-26 14:01 43.80322 11.20089 121 ft 0 kts 129°